Regional Weather Roundup
Issued by NWS

Home | Current Version | Previous Version | Text Only | Print | Product List | Glossary On
Versions: 1 2 3 4 5 6 7 8 9 10 11 12 13 14 15 16 17 18 19 20 21 22 23 24 25 26 27 28 29 30 31 32 33 34 35 36 37 38 39 40 41 42 43 44 45 46 47 48 49 50
000
ASUS44 KJAN 280203
RWRMS

MISSISSIPPI HOURLY WEATHER ROUNDUP
NATIONAL WEATHER SERVICE JACKSON MS
900 PM CDT MON APR 27 2015

NOTE: "FAIR: INDICATES FEW OR NO CLOUDS BELOW 12,000 FEET WITH NO
SIGNIFICANT WEATHER AND/OR OBSTRUCTIONS TO VISIBILITY.

MSZ001>002-007>008-010>013-018>021-025>028-034>036-280300-
NORTHWEST MISSISSIPPI

CITY           SKY/WX    TMP DP  RH WIND       PRES   REMARKS
CLARKSDALE     FAIR      59  46  63 N9        29.91S
CLEVELAND      FAIR      62  47  59 NE9G16    29.90R
GREENWOOD      CLEAR     61  45  55 NE8       29.88R
GREENVILLE     CLEAR     63  44  50 NE12      29.88R
OLIVE BRANCH   CLEAR     55  41  58 N7        29.95R
OXFORD         FAIR      55  43  62 NE3       29.93S
TUNICA         CLEAR     57  46  67 N10       29.93S
$$

MSZ003>006-009-014>017-022>024-029>033-037>039-280300-
NORTHEAST MISSISSIPPI

CITY           SKY/WX    TMP DP  RH WIND       PRES   REMARKS
COLUMBUS AFB   MOCLDY    58  46  62 N6        29.89R
CORINTH        FAIR      57  45  62 N5        29.94R
GOLDN TRIANGLE MOCLDY    61  45  55 NE9       29.88R
STARKVILLE     FAIR      59  45  58 NE8       29.89R
TUPELO         PTCLDY    55  46  71 NE7       29.90F
$$

MSZ040-058-280300-
CENTRAL MISSISSIPPI

CITY           SKY/WX    TMP DP  RH WIND       PRES   REMARKS
JACKSON INTL   CLOUDY    63  51  65 NE9       29.84R
JACKSON HAWKNS CLOUDY    64  49  57 NE9       29.84R
MERIDIAN KEY   CLOUDY    61  49  64 NE10      29.86R
MERIDIAN NAS   CLOUDY    61  48  62 NE3       29.86R
RAYMOND        FAIR      63  57  82 MISG      29.83R
VICKSBURG      CLOUDY    65  52  62 NE9       29.84R
$$

MSZ059>079-280300-
SOUTH MISSISSIPPI

CITY           SKY/WX    TMP DP  RH WIND       PRES   REMARKS
BROOKHAVEN       N/A     59  55  88 CALM      29.85R
HATTIESBURG    CLOUDY    61  56  83 E5        29.84R
MCCOMB         CLOUDY    60  57  89 CALM      29.85R
NATCHEZ        CLOUDY    61  54  77 E3        29.84R
PINE BELT      CLOUDY    59  54  82 E7        29.84R
$$

MSZ080>082-280300-
COASTAL MISSISSIPPI

CITY           SKY/WX    TMP DP  RH WIND       PRES   REMARKS
BILOXI         LGT RAIN  63  63 100 N7        29.82R
PASCAGOULA     LGT RAIN  63  61  93 N10       29.84R FOG
GULFPORT       RAIN      63  60  90 VRB5      29.83R
$$


USA.gov is the U.S. government's official web portal to all federal, state and local government web resources and services.